SAS56N EKCH-EKYT

Flight info

Callsign SAS56N
Flight time 0h 28m
Altitude 18000
Route GOLGA T506 LAPMA L621 AAL
Aircraft B738/M-SDE2E3FGHIRWXY/LB1

Departure

Time 2026-04-30 18:20
Airport Copenhagen Kastrup Airport (EKCH)

Arrival

Time 2026-04-30 18:48
Airport Aalborg Airport (EKYT)
Time Latitude Longitude Altitude Speed Heading
2026-04-30 17:50 55.62641 12.65056 16 ft 0 kts 278°
2026-04-30 18:06 55.62632 12.65166 20 ft 3 kts 278°
2026-04-30 18:07 55.62626 12.65240 16 ft 0 kts 278°
2026-04-30 18:11 55.62604 12.65200 17 ft 6 kts 201°
2026-04-30 18:11 55.62405 12.65207 16 ft 13 kts 181°
2026-04-30 18:12 55.62114 12.65076 17 ft 17 kts 214°
2026-04-30 18:13 55.61898 12.64826 16 ft 21 kts 212°
2026-04-30 18:13 55.61542 12.64414 16 ft 25 kts 213°
2026-04-30 18:14 55.61349 12.64193 18 ft 11 kts 214°
2026-04-30 18:15 55.61088 12.63895 16 ft 18 kts 212°
2026-04-30 18:15 55.60722 12.63474 16 ft 24 kts 212°
2026-04-30 18:16 55.60500 12.63217 16 ft 10 kts 166°
2026-04-30 18:16 55.60467 12.63261 16 ft 0 kts 132°
2026-04-30 18:18 55.60462 12.63270 16 ft 2 kts 131°
2026-04-30 18:18 55.60439 12.63318 16 ft 8 kts 131°
2026-04-30 18:18 55.60412 12.63416 17 ft 9 kts 89°
2026-04-30 18:18 55.60443 12.63510 17 ft 9 kts 44°
2026-04-30 18:19 55.60510 12.63611 17 ft 34 kts 41°
2026-04-30 18:19 55.60913 12.64238 17 ft 118 kts 41°
2026-04-30 18:19 55.61715 12.65483 18 ft 186 kts 41°
2026-04-30 18:19 55.62807 12.67170 309 ft 222 kts 40°
2026-04-30 18:20 55.63985 12.69040 1109 ft 241 kts 39°
2026-04-30 18:20 55.65318 12.71019 1808 ft 259 kts 28°
2026-04-30 18:20 55.67083 12.72036 1805 ft 289 kts 358°
2026-04-30 18:20 55.68957 12.70906 2748 ft 283 kts 330°
2026-04-30 18:21 55.70752 12.69696 3872 ft 275 kts 355°
2026-04-30 18:21 55.72608 12.69587 5132 ft 259 kts 359°
2026-04-30 18:21 55.74400 12.69447 6078 ft 259 kts 359°
2026-04-30 18:21 55.76206 12.69266 6883 ft 261 kts 358°
2026-04-30 18:22 55.78031 12.69021 7555 ft 268 kts 357°
2026-04-30 18:22 55.82045 12.68449 8358 ft 302 kts 357°
2026-04-30 18:22 55.84149 12.68153 9127 ft 305 kts 357°
2026-04-30 18:23 55.86273 12.67859 9922 ft 307 kts 357°
2026-04-30 18:23 55.88414 12.67566 10653 ft 310 kts 357°
2026-04-30 18:23 55.90574 12.67268 11374 ft 313 kts 357°
2026-04-30 18:23 55.92752 12.66953 12108 ft 315 kts 357°
2026-04-30 18:24 55.97154 12.66252 13541 ft 320 kts 357°
2026-04-30 18:24 55.99376 12.65867 14251 ft 323 kts 357°
2026-04-30 18:24 56.01633 12.65243 14437 ft 342 kts 343°
2026-04-30 18:25 56.03702 12.62884 14424 ft 370 kts 317°
2026-04-30 18:25 56.06649 12.55030 14417 ft 386 kts 303°
2026-04-30 18:25 56.08033 12.50811 14536 ft 400 kts 304°
2026-04-30 18:26 56.11091 12.42389 15701 ft 401 kts 308°
2026-04-30 18:26 56.12693 12.38356 16561 ft 395 kts 309°
2026-04-30 18:26 56.14310 12.34427 17412 ft 388 kts 310°
2026-04-30 18:27 56.17581 12.26694 17989 ft 389 kts 310°
2026-04-30 18:27 56.19223 12.22839 17994 ft 389 kts 310°
2026-04-30 18:28 56.22514 12.15116 18007 ft 389 kts 310°
2026-04-30 18:28 56.24159 12.11251 18005 ft 390 kts 310°
2026-04-30 18:28 56.27467 12.03466 18015 ft 395 kts 310°
2026-04-30 18:29 56.29132 11.99541 18532 ft 394 kts 310°
2026-04-30 18:29 56.34056 11.87878 18524 ft 387 kts 310°
2026-04-30 18:30 56.37311 11.80145 18529 ft 388 kts 310°
2026-04-30 18:30 56.40570 11.72377 18527 ft 388 kts 310°
2026-04-30 18:31 56.42195 11.68494 18524 ft 388 kts 310°
2026-04-30 18:31 56.45449 11.60697 18522 ft 388 kts 310°
2026-04-30 18:32 56.48670 11.52958 18524 ft 388 kts 309°
2026-04-30 18:32 56.50279 11.49080 18496 ft 380 kts 309°
2026-04-30 18:32 56.53333 11.41689 18282 ft 351 kts 309°
2026-04-30 18:33 56.54770 11.38207 18195 ft 343 kts 309°
2026-04-30 18:33 56.57651 11.31231 17710 ft 346 kts 309°
2026-04-30 18:33 56.59112 11.27788 17422 ft 341 kts 312°
2026-04-30 18:34 56.60655 11.24552 16916 ft 338 kts 314°
2026-04-30 18:34 56.63823 11.18251 15701 ft 341 kts 315°
2026-04-30 18:34 56.65419 11.15077 15366 ft 339 kts 314°
2026-04-30 18:35 56.66994 11.11917 15026 ft 336 kts 314°
2026-04-30 18:35 56.68558 11.08760 14653 ft 335 kts 314°
2026-04-30 18:35 56.70113 11.05604 14266 ft 335 kts 314°
2026-04-30 18:36 56.73205 10.99298 13513 ft 331 kts 314°
2026-04-30 18:36 56.74711 10.96212 13430 ft 320 kts 313°
2026-04-30 18:36 56.77552 10.90376 13399 ft 295 kts 313°
2026-04-30 18:37 56.78883 10.87636 13395 ft 282 kts 314°
2026-04-30 18:37 56.80153 10.85019 13404 ft 269 kts 313°
2026-04-30 18:37 56.81367 10.82515 13294 ft 261 kts 314°
2026-04-30 18:37 56.82602 10.79972 12543 ft 278 kts 313°
2026-04-30 18:38 56.83914 10.77269 12027 ft 287 kts 313°
2026-04-30 18:38 56.85236 10.74538 11716 ft 286 kts 313°
2026-04-30 18:38 56.86548 10.71820 11459 ft 284 kts 313°
2026-04-30 18:38 56.87855 10.69110 11123 ft 285 kts 313°
2026-04-30 18:39 56.89169 10.66384 10766 ft 287 kts 313°
2026-04-30 18:39 56.90490 10.63639 10415 ft 288 kts 312°
2026-04-30 18:39 56.91817 10.60879 10038 ft 290 kts 312°
2026-04-30 18:39 56.93150 10.58103 9646 ft 291 kts 312°
2026-04-30 18:40 56.94029 10.56269 9386 ft 288 kts 312°
2026-04-30 18:40 56.94379 10.55539 9278 ft 287 kts 312°
2026-04-30 18:40 56.95721 10.52737 8861 ft 282 kts 312°
2026-04-30 18:40 56.97002 10.50057 8493 ft 278 kts 312°
2026-04-30 18:41 56.98266 10.47413 8113 ft 273 kts 312°
2026-04-30 18:41 56.99509 10.44809 7746 ft 270 kts 311°
2026-04-30 18:41 57.00738 10.42233 7377 ft 266 kts 311°
2026-04-30 18:41 57.01934 10.39722 7019 ft 264 kts 311°
2026-04-30 18:42 57.03135 10.37197 6642 ft 261 kts 311°
2026-04-30 18:42 57.05545 10.32125 5531 ft 270 kts 311°
2026-04-30 18:42 57.06798 10.29486 4851 ft 278 kts 311°
2026-04-30 18:45 57.10646 10.02940 1715 ft 180 kts 264°
2026-04-30 18:45 57.10500 10.00738 1456 ft 166 kts 264°
2026-04-30 18:45 57.10368 9.98727 1243 ft 151 kts 263°
2026-04-30 18:46 57.10246 9.96851 1066 ft 146 kts 264°
2026-04-30 18:46 57.10128 9.95039 876 ft 141 kts 263°
2026-04-30 18:46 57.10015 9.93307 659 ft 130 kts 263°
2026-04-30 18:46 57.09909 9.91674 478 ft 128 kts 262°
2026-04-30 18:47 57.09801 9.90014 324 ft 134 kts 263°
2026-04-30 18:47 57.09691 9.88308 139 ft 134 kts 263°
2026-04-30 18:47 57.09583 9.86627 21 ft 124 kts 263°
2026-04-30 18:47 57.09496 9.85344 18 ft 69 kts 263°
2026-04-30 18:48 57.09457 9.84658 19 ft 35 kts 265°
2026-04-30 18:48 57.09442 9.84374 20 ft 12 kts 261°
2026-04-30 18:48 57.09395 9.84304 18 ft 10 kts 156°
2026-04-30 18:48 57.09361 9.84348 18 ft 0 kts 141°
2026-04-30 18:49 57.09351 9.84363 18 ft 6 kts 139°
2026-04-30 18:49 57.09319 9.84414 18 ft 6 kts 141°
2026-04-30 18:50 57.09285 9.84463 18 ft 6 kts 139°
2026-04-30 18:50 57.09264 9.84529 19 ft 7 kts 104°
2026-04-30 18:50 57.09267 9.84677 18 ft 13 kts 84°
2026-04-30 18:50 57.09277 9.84838 18 ft 12 kts 84°
2026-04-30 18:51 57.09287 9.84994 18 ft 12 kts 83°
2026-04-30 18:51 57.09298 9.85146 18 ft 12 kts 83°
2026-04-30 18:51 57.09307 9.85294 18 ft 12 kts 84°
2026-04-30 18:51 57.09317 9.85439 18 ft 12 kts 83°
2026-04-30 18:52 57.09328 9.85600 20 ft 13 kts 83°
2026-04-30 18:52 57.09337 9.85764 18 ft 13 kts 84°
2026-04-30 18:52 57.09337 9.85882 18 ft 8 kts 114°
2026-04-30 18:52 57.09299 9.85950 18 ft 8 kts 142°
2026-04-30 18:53 57.09258 9.86008 18 ft 7 kts 142°
2026-04-30 18:53 57.09218 9.86063 18 ft 7 kts 143°
2026-04-30 18:53 57.09160 9.86143 18 ft 14 kts 142°
2026-04-30 18:53 57.09070 9.86269 18 ft 18 kts 142°
2026-04-30 18:54 57.08957 9.86430 18 ft 22 kts 140°
2026-04-30 18:54 57.08837 9.86601 18 ft 22 kts 143°
2026-04-30 18:54 57.08723 9.86772 18 ft 21 kts 140°
2026-04-30 18:54 57.08619 9.86947 18 ft 20 kts 136°
2026-04-30 18:55 57.08578 9.87041 18 ft 2 kts 98°
2026-04-30 18:55 57.08604 9.87074 18 ft 4 kts 37°
2026-04-30 18:55 57.08612 9.87088 18 ft 0 kts 48°
2026-04-30 18:56 57.08613 9.87092 18 ft 0 kts 57°